Regional Weather Roundup
Issued by NWS

Home | Current Version | Previous Version | Graphics & Text | Print | Product List | Glossary On
Versions: 1 2 3 4 5 6 7 8 9 10 11 12 13 14 15 16 17 18 19 20 21 22 23 24 25 26 27 28 29 30 31 32 33 34 35 36 37 38 39 40 41 42 43 44 45 46 47 48 49 50
000
ASUS43 KMPX 260010
RWRMN
WEATHER ROUNDUP FOR MINNESOTA
NATIONAL WEATHER SERVICE TWIN CITIES/CHANHASSEN MN
600 PM CST SAT FEB 25 2017


NOTE: "FAIR" INDICATES FEW OR NO CLOUDS BELOW 12,000 FEET WITH NO
SIGNIFICANT WEATHER AND/OR OBSTRUCTIONS TO VISIBILITY. N/A MEANS
CURRENT SKY AND/OR WEATHER CONDITIONS ARE NOT AVAILABLE.

MNZ060>063-068>070-260100-
   Twin Cities Metro

CITY           SKY/WX    TMP DP  RH WIND       PRES   REMARKS
TWIN CITIES    CLOUDY    32  17  54 SW13      29.87F WCI  22
6HR MIN TEMP:  28; 6HR MAX TEMP:  34;

ST PAUL        CLOUDY    31  18  58 S9        29.88F WCI  23
CRYSTAL        CLOUDY    31  16  54 SW8       29.85F WCI  23
BLAINE         CLOUDY    34  19  55 SW10      29.85F WCI  26
LAKEVILLE      CLOUDY    27  19  74 S7        29.89S WCI  19
EDEN PRAIRIE   CLOUDY    30  20  66 SW15      29.86F WCI  19
6HR MIN TEMP:  28; 6HR MAX TEMP:  34;

SOUTH ST PAUL  CLOUDY    32  18  57 SW8       29.88F WCI  25
LAKE ELMO      CLOUDY    32  21  64 SW8       29.87F WCI  25
$$
MNZ001>005-007-008-013>017-022>024-027-028-260100-
   Northwest Minnesota

CITY           SKY/WX    TMP DP  RH WIND       PRES   REMARKS
BEMIDJI        PTCLDY    26  19  77 SW8       29.71F WCI  17
HALLOCK        CLEAR     18  12  79 NW10      29.76S WCI   6
ROSEAU         FLURRIES  19  14  79 NW8       29.72S WCI   9
WARROAD        PTCLDY    19  10  68 W12G17    29.71S WCI   7
THIEF RVR FALL PTCLDY    22  17  81 NW10      29.75  WCI  11
CROOKSTON      CLEAR     25  19  80 N10       29.77S WCI  15
FOSSTON        MOCLDY    25  16  68 W10       29.73F WCI  15
DETROIT LAKES  CLOUDY    30  25  80 W6        29.75F WCI  24
MOORHEAD       CLOUDY    28  23  80 W6        29.77F WCI  22
PARK RAPIDS    CLOUDY    27  18  69 W7        29.73F WCI  19
MAHNOMEN       FAIR      26  22  85 W8        29.73F WCI  18
$$
MNZ006-009>011-018-025>026-260100-
   North Central Minnesota

CITY           SKY/WX    TMP DP  RH WIND       PRES   REMARKS
BAUDETTE       CLOUDY    22  14  71 W8        29.68F WCI  12
FLAG ISLAND    MOCLDY    19  14  79 W18       29.67R WCI   4
INTL FALLS     CLOUDY    20  15  81 S3        29.69F
6HR MIN TEMP:  18; 6HR MAX TEMP:  22; 6HR PCP: TRACE;

WASKISH        PTCLDY    19  16  86 W15       29.71S WCI   5
BIG FORK       MOCLDY    27  19  74 SW9       29.69F WCI  17
LONGVILLE      FLURRIES  28  19  69 W8        29.73F WCI  20
GRAND RAPIDS   CLOUDY    27  18  69 SW8       29.74S WCI  19
CRANE LAKE     LGT SNOW  19  16  86 CALM      29.72F
ORR            CLOUDY    21  12  68 CALM      29.66F
COOK           CLOUDY    21  14  73 CALM      29.70F
WALKER         MOCLDY    26  20  76 W8        29.72F WCI  18
$$
MNZ012-019>021-037-260100-
   Northeast Minnesota

CITY           SKY/WX    TMP DP  RH WIND       PRES   REMARKS
DULUTH         PTCLDY    26  16  65 SW9       29.73F WCI  17
6HR MIN TEMP:  19; 6HR MAX TEMP:  26;

ELY            CLOUDY    19  12  73 SW7       29.70F WCI  10
HIBBING        CLOUDY    24  15  68 S6        29.70F WCI  17
EVELETH        PTCLDY    24  10  55 SW6       29.72F WCI  17
DULUTH HARBOR  CLOUDY    30  18  59 CALM      29.79F
TWO HARBORS    CLEAR     27  16  63 W3        29.73F
SILVER BAY     PTCLDY    23  14  68 SW3       29.73F
GRAND MARAIS     N/A     25   6  44 W5        29.75R WCI  19
G MARAIS ARPRT CLOUDY    18   1  49 W3        29.67S
$$
MNZ029>031-032-039>041-046>048-054>057-064-260100-
   West Central Minnesota

CITY           SKY/WX    TMP DP  RH WIND       PRES   REMARKS
FERGUS FALLS   LGT SNOW  27  27 100 NW5       29.80F WCI  21
WHEATON        CLOUDY    30  28  93 N8        29.79R WCI  23
MORRIS         CLOUDY    34  23  64 SW12      29.76F WCI  25
ALEXANDRIA     CLOUDY    32  20  61 SW9       29.76F WCI  24
ELBOW LAKE     LGT SNOW  28  28  99 W5        29.77S WCI  23
WADENA         LGT SNOW  27  27 100 SW5       29.74F VSB 3/4 WCI  21
GLENWOOD       CLOUDY    30  21  69 SW12      29.77F WCI  21
APPLETON       MOCLDY    34  19  55 SW8       29.79F WCI  27
BENSON         CLOUDY    34  19  55 SW9       29.80F WCI  26
ORTONVILLE     CLOUDY    34  19  55 SW6       29.78F WCI  29
MADISON        PTCLDY    36  25  64 SW13      29.80F
WILLMAR        FAIR      32  25  74 SW13G20   29.83S WCI  22
$$
MNZ033>034-036-042>043-049>051-058-059-260100-
   Central Minnesota

CITY           SKY/WX    TMP DP  RH WIND       PRES   REMARKS
ST CLOUD       CLOUDY    32  21  64 SW12      29.81F WCI  23
6HR MIN TEMP:  27; 6HR MAX TEMP:  32;

SAUK CENTRE    FAIR      31  20  63 SW12      29.78F WCI  22
PAYNESVILLE    CLOUDY    32  22  66 SW9       29.81S WCI  24
AITKIN         LGT SNOW  28  21  74 SW6       29.75F WCI  22
PINE RIVER     LGT SNOW  28  25  86 SW3       29.79S
BRAINERD       LGT SNOW  27  25  92 SW6       29.77F VSB 3/4 WCI  20
STAPLES        LGT SNOW  27  25  93 SW6       29.76F WCI  20
LONG PRAIRIE   CLOUDY    32  21  64 S10       29.77F WCI  24
LITTLE FALLS   CLOUDY    32  21  64 SW5       29.78F WCI  27
LITCHFIELD     PTCLDY    32  21  64 SW8       29.83S WCI  25
BUFFALO        CLOUDY    32  20  62 S6        29.85F WCI  26
MAPLE LAKE     CLOUDY    32  24  71 S5        29.84F WCI  27
HUTCHINSON     CLEAR     31  24  73 SW16G22   29.85F WCI  20
$$
MNZ037-044-045-052-053-260100-
   East Central Minnesota

CITY           SKY/WX    TMP DP  RH WIND       PRES   REMARKS
PRINCETON      CLOUDY    32  19  59 S8        29.82F WCI  25
MORA           MOCLDY    32  19  59 SW6       29.82F WCI  26
CAMBRIDGE      CLOUDY    34  19  55 SW7       29.81F WCI  28
RUSH CITY      CLOUDY    30  18  59 SW8       29.83S WCI  23
MOOSE LAKE     CLOUDY    30  19  64 SW7       29.76F WCI  23
HINCKLEY       CLOUDY    30  21  69 SW9       29.81S WCI  22
CLOQUET        CLOUDY    27  16  63 SW8       29.75F WCI  18
MCGREGOR       CLOUDY    30  21  69 SW14G20   29.77S WCI  20
$$
MNZ071>073-080-081-089-090-097-098-260100-
   Southwest Minnesota

CITY           SKY/WX    TMP DP  RH WIND       PRES   REMARKS
MONTEVIDEO     PTCLDY    30  19  64 SW10      29.83F WCI  21
GRANITE FALLS  PTCLDY    32  23  69 S13       29.85F WCI  22
CANBY          PTCLDY    32  22  65 SW10      29.82F WCI  24
MARSHALL       CLOUDY    30  19  63 SW17      29.83F WCI  18
REDWOOD FALLS  CLOUDY    30  17  58 SW13      29.85F WCI  20
OLIVIA         CLEAR     32  23  69 SW15      29.84F WCI  22
PIPESTONE      PTCLDY    27  16  63 SW17      29.83S WCI  14
WINDOM         CLOUDY    27  19  74 S14G20    29.87F WCI  15
WORTHINGTON    CLOUDY    25  17  72 S18       29.86F WCI  11
JACKSON        CLOUDY    27  18  69 S16       29.89F WCI  14
TRACY          CLOUDY    29  20  69 SW12      29.84F WCI  20
SLAYTON        MOCLDY    26  18  72 SW21      29.83F WCI  11
$$
MNZ065>067-074>077-082>085-091>093-260100-
   South Central Minnesota

CITY           SKY/WX    TMP DP  RH WIND       PRES   REMARKS
MANKATO          N/A     26  19  74 S13       29.90  WCI  15
NEW ULM        CLOUDY    28  18  64 SW15      29.88S WCI  17
ST JAMES       CLOUDY    27  19  74 S14       29.91F WCI  15
FAIRMONT       CLOUDY    24  18  77 S16       29.92F WCI  11
GLENCOE        PTCLDY    32  25  74 SW12      29.85F WCI  23
FARIBAULT      CLOUDY    25  18  74 S9        29.92S WCI  15
OWATONNA       CLEAR     19  12  73 S10       29.92S WCI   8
WASECA         CLOUDY    23  18  80 S12       29.93F WCI  12
ALBERT LEA     MOCLDY    21  16  79 SW10      29.93F WCI  10
$$
MNZ078>079-086>088-094>096-260100-
   Southeast Minnesota

CITY           SKY/WX    TMP DP  RH WIND       PRES   REMARKS
ROCHESTER      CLEAR     16  11  80 SW12      29.92F WCI   3
6HR MIN TEMP:  16; 6HR MAX TEMP:  22;

RED WING       CLOUDY    27  16  63 SW15      29.91S WCI  15
STANTON        CLOUDY    26  18  71 SW10      29.90S WCI  16
WINONA           N/A     25  14  63 W10G17    29.96S WCI  15
AUSTIN         CLEAR     18  10  73 SW7       29.94S WCI   8
PRESTON        CLEAR     19  12  73 SW10      29.94S WCI   8
$$
ABBREVIATIONS USED IN REMARKS
   TC - TEMPERATURES IN CELSIUS
  WCI - WIND CHILL INDEX
   HX - HEAT INDEX
  VSB - VISIBILITY
$$




USA.gov is the U.S. government's official web portal to all federal, state and local government web resources and services.